Overview Statistics Trail Chart Weather Telemetry Raw packets
 

This is the latest recevied weather packets stored in our database for station/object SV9TNF-51. If no packets are shown the sender has not sent any weather packets the latest 10 day(s).

<< 78 79 80 81 82 83 84 >>
Time Temp. Humidity Pressure Rain* Wind** Luminosity Snow
1788099441 34.44° C 33% 1012.2 hPa 0 mm 2.68 m/s, 137° - -
1788099142 35.56° C 32% 1012.2 hPa 0 mm 0.45 m/s, 126° - -
1788098841 34.44° C 35% 1012.2 hPa 0 mm 1.34 m/s, 129° - -
1788098541 35° C 34% 1012.2 hPa 0 mm 3.13 m/s, 138° - -
1788098241 35° C 34% 1012.2 hPa 0 mm 0.45 m/s, 133° - -
1788097941 35.56° C 34% 1012.2 hPa 0 mm 0 m/s - -
1788097641 34.44° C 35% 1012.5 hPa 0 mm 3.58 m/s, 129° - -
1788097341 35° C 39% 1012.5 hPa 0 mm 1.79 m/s, 146° - -
1788097041 35.56° C 35% 1012.5 hPa 0 mm 1.79 m/s, 108° - -
1788096741 35° C 39% 1012.5 hPa 0 mm 1.79 m/s, 126° - -
1788096440 35° C 39% 1012.5 hPa 0 mm 1.34 m/s, 94° - -
1788096141 34.44° C 35% 1012.2 hPa 0 mm 1.34 m/s, 130° - -
1788095840 34.44° C 37% 1012.2 hPa 0 mm 2.24 m/s, 134° - -
1788095540 34.44° C 41% 1012.2 hPa 0 mm 2.68 m/s, 125° - -
1788095240 34.44° C 42% 1012.2 hPa 0 mm 1.34 m/s, 134° - -
1788094940 33.33° C 41% 1012.2 hPa 0 mm 4.92 m/s, 311° - -
1788094640 32.78° C 43% 1012.5 hPa 0 mm 10.28 m/s, 329° - -
1788094340 33.89° C 40% 1012.5 hPa 0 mm 1.79 m/s, 334° - -
1788094040 34.44° C 38% 1012.5 hPa 0 mm 5.81 m/s, 166° - -
1788093740 34.44° C 38% 1012.5 hPa 0 mm 5.36 m/s, 342° - -
1788093439 33.89° C 39% 1012.5 hPa 0 mm 7.15 m/s, 345° - -
1788093139 33.89° C 39% 1013.2 hPa 0 mm 4.92 m/s, 126° - -
1788092839 34.44° C 35% 1013.2 hPa 0 mm 4.92 m/s, 142° - -
1788092539 35° C 35% 1013.2 hPa 0 mm 4.92 m/s, 32° - -
1788092239 35° C 37% 1013.2 hPa 0 mm 2.68 m/s, 129° - -

* Rain latest hour (hover to see other rain measurements)
** Current wind speed in m/s (hover to see current wind gust speed)